This demonstration page uses our WeatherBlox Daily Observations layout. Learn more.

Left ArrowRight Arrow

Hourly Observations for August 29, 2015

Temp ( °F °C ) Dew Point ( °F °C ) Humidity (%) Winds ( mph kmh ) Pressure ( in mb ) Visibility ( mi km ) Precip ( " mm )
12:51 am 00:51 Clear 78 25.6 62 16.7 58 58 NNW 7 11 29.81 1009 10 16 0.00 0.00
1:51 am 01:51 Clear 75 23.9 65 18.3 71 71 Calm 29.81 1009 10 16 0.00 0.00
2:51 am 02:51 Mostly Clear 77 25 61 16.1 58 58 ESE 8 13 29.81 1010 10 16 0.00 0.00
3:51 am 03:51 Clear 77 25 58 14.4 52 52 ESE 9 15 29.82 1010 10 16 0.00 0.00
4:51 am 04:51 Clear 76 24.4 58 14.4 54 54 SE 12 19 29.85 1011 10 16 0.00 0.00
5:51 am 05:51 Clear 75 23.9 59 15 58 58 SE 13 20 29.87 1012 10 16 0.00 0.00
6:51 am 06:51 Sunny 77 25 57 13.9 50 50 SSE 10 17 29.91 1013 10 16 0.00 0.00
7:51 am 07:51 Sunny 80 26.7 58 14.4 47 47 SSE 10 17 29.92 1013 10 16 0.00 0.00
8:51 am 08:51 Sunny 84 28.9 57 13.9 40 40 SE 8 13 29.92 1013 10 16 0.00 0.00
9:51 am 09:51 Sunny 88 31.1 57 13.9 35 35 VRB 7 11 29.92 1013 10 16 0.00 0.00
10:51 am 10:51 Sunny 90 32.2 56 13.3 32 32 VRB 5 7 29.91 1013 10 16 0.00 0.00
11:51 am 11:51 Sunny 93 33.9 55 12.8 28 28 VRB 3 6 29.88 1012 10 16 0.00 0.00
12:51 pm 12:51 Sunny 96 35.6 55 12.8 25 25 Calm 29.83 1010 10 16 0.00 0.00
1:51 pm 13:51 Sunny 98 36.7 54 12.2 23 23 S 8 13 29.80 1009 10 16 0.00 0.00
2:51 pm 14:51 Sunny 99 37.2 53 11.7 21 21 S 8 13 29.77 1008 10 16 0.00 0.00
3:51 pm 15:51 Sunny 99 37.2 51 10.6 20 20 W 8 13 29.75 1007 10 16 0.00 0.00
4:32 pm 16:32 Sunny with Thunderstorms 98 36.7 51 10.6 20 20 W 8 13 29.65 1004 10 16 0.00 0.00
4:51 pm 16:51 Partly Cloudy with Thunderstorms 97 36.1 52 11.1 22 22 N 20 31 29.75 1007 10 16 0.00 0.00
5:10 pm 17:10 Partly Cloudy with Thunderstorms 91 33 54 12 28 28 NNE 25 41 29.68 1005 10 16 0.00 0.00
5:39 pm 17:39 Partly Cloudy with Nearby Thunderstorms 87 30.6 59 15 39 39 SE 15 24 29.71 1006 10 16 0.00 0.00
5:51 pm 17:51 Mostly Cloudy with Nearby Thunderstorms 88 31.1 56 13.3 34 34 SE 13 20 29.82 1010 10 16 0.00 0.00
5:58 pm 17:58 Mostly Cloudy with Nearby Thunderstorms 87 30.6 55 12.8 34 34 SE 18 30 29.74 1007 10 16 0.00 0.00
6:21 pm 18:21 Mostly Cloudy with Light Rain 86 30 55 12.8 35 35 SSE 14 22 29.77 1008 10 16 0.00 0.03
6:37 pm 18:37 Mostly Cloudy with Nearby Thunderstorms 82 27.8 59 15 46 46 SSE 18 30 29.77 1008 10 16 0.00 0.03
6:51 pm 18:51 Mostly Cloudy with Nearby Thunderstorms 80 26.7 61 16.1 52 52 S 14 22 29.85 1011 10 16 0.00 0.03
7:35 pm 19:35 Clear 79 26.1 60 15.6 52 52 SSE 3 6 29.80 1009 10 16 0.00 0.00
7:51 pm 19:51 Clear 79 26.1 60 15.6 52 52 VRB 3 6 29.86 1011 10 16 0.00 0.00
8:51 pm 20:51 Clear 80 26.7 58 14.4 47 47 E 10 17 29.87 1012 10 16 0.00 0.00
9:51 pm 21:51 Clear 79 26.1 57 13.9 47 47 E 10 17 29.87 1012 10 16 0.00 0.00
10:51 pm 22:51 Clear 79 26.1 57 13.9 47 47 ESE 9 15 29.87 1012 10 16 0.00 0.00
11:51 pm 23:51 Clear 78 25.6 56 13.3 47 47 SSE 7 11 29.88 1012 10 16 0.00 0.00

Powered by AerisWeather